GW1852 Weather Reports


Display with metric or nautical units.
time (UTC)temp
F
wind
direction
speed
MPH
gust
MPH
rain 1hr
in
rain 24hr
in
rain mn
in
humidity
%
barometer
mb
20260901003044 76 68 0.0 1.0 0.00 0.00 0.00 32 1014.3
20260901001549 77 98 0.0 1.0 0.00 0.00 0.00 36 1014.4
20260901000047 77 67 0.0 1.0 0.00 0.00 0.00 34 1014.4
20260831234539 75 110 0.0 1.0 0.00 0.00 0.00 35 1014.5
20260831233040 75 83 0.0 0.0 0.00 0.00 0.00 34 1014.6
20260831231539 75 114 0.0 0.0 0.00 0.00 0.00 31 1014.6
20260831230035 75 124 0.0 1.0 0.00 0.00 0.00 33 1014.7
20260831224535 75 115 0.0 1.0 0.00 0.00 0.00 35 1014.8
20260831223033 75 115 0.0 1.0 0.00 0.00 0.00 33 1014.9
20260831221536 74 119 0.0 1.0 0.00 0.00 0.00 35 1015.0
20260831220030 74 124 0.0 1.0 0.00 0.00 0.00 37 1015.1
20260831214532 74 125 0.0 2.0 0.00 0.00 0.00 34 1015.1
20260831213025 74 356 0.0 4.0 0.00 0.00 0.00 34 1015.3
20260831211525 74 101 0.0 1.0 0.00 0.00 0.00 35 1015.3
20260831210021 73 206 0.0 2.0 0.00 0.00 0.00 37 1015.3
20260831204517 72 289 0.0 3.0 0.00 0.00 0.00 36 1015.4
20260831203015 72 305 0.0 1.0 0.00 0.00 0.00 38 1015.6
20260831201513 71 231 0.0 3.0 0.00 0.00 0.00 36 1015.6
20260831200010 71 274 0.0 1.0 0.00 0.00 0.00 38 1015.8
20260831194507 70 242 0.0 4.0 0.00 0.00 0.00 38 1015.9
20260831193004 70 11 0.0 2.0 0.00 0.00 0.00 38 1016.0
20260831191501 70 259 0.0 4.0 0.00 0.00 0.00 40 1016.2
20260831190121 69 281 2.0 9.0 0.00 0.00 0.00 43 1016.4
20260831184608 70 108 0.0 0.0 0.00 0.00 0.00 43 1016.5
20260831183056 69 322 0.0 0.0 0.00 0.00 0.00 43 1016.7
20260831181559 68 342 0.0 0.0 0.00 0.00 0.00 43 1016.8
20260831180052 68 21 0.0 0.0 0.00 0.00 0.00 44 1016.8
20260831174556 67 323 0.0 0.0 0.00 0.00 0.00 45 1017.0
20260831173048 67 340 0.0 0.0 0.00 0.00 0.00 47 1017.1
20260831171545 66 345 0.0 0.0 0.00 0.00 0.00 47 1017.0
20260831170045 66 333 0.0 0.0 0.00 0.00 0.00 48 1017.0
20260831164551 65 341 0.0 0.0 0.00 0.00 0.00 46 1016.9
20260831163039 65 27 0.0 0.0 0.00 0.00 0.00 47 1016.9
20260831161536 64 351 0.0 0.0 0.00 0.00 0.00 48 1016.9
20260831160031 62 12 0.0 0.0 0.00 0.00 0.00 53 1016.9
20260831154529 60 335 2.0 8.0 0.00 0.00 0.00 59 1016.9
20260831153022 57 316 5.0 8.0 0.00 0.00 0.00 62 1016.9
20260831151519 57 310 4.0 8.0 0.00 0.00 0.00 62 1016.8
20260831150019 55 328 4.0 8.0 0.00 0.00 0.00 65 1016.7
20260831144513 54 305 4.0 9.0 0.00 0.00 0.00 66 1016.7
20260831143013 54 322 3.0 7.0 0.00 0.00 0.00 67 1016.5
20260831141511 53 342 4.0 6.0 0.00 0.00 0.00 68 1016.5
20260831140008 52 345 3.0 6.0 0.00 0.00 0.00 76 1016.2
20260831134516 50 360 2.0 6.0 0.00 0.00 0.00 76 1016.2
20260831133012 49 20 4.0 8.0 0.00 0.00 0.00 75 1016.0
20260831131503 49 8 0.0 1.0 0.00 0.00 0.00 78 1015.9
20260831130000 49 297 1.0 5.0 0.00 0.00 0.00 81 1015.7
20260831124601 49 354 0.0 2.0 0.00 0.00 0.00 77 1015.6
20260831123057 48 287 0.0 0.0 0.00 0.00 0.00 83 1015.5
20260831121604 49 287 0.0 0.0 0.00 0.00 0.00 81 1015.4
20260831120053 48 331 0.0 0.0 0.00 0.00 0.00 80 1015.2
20260831114551 48 281 0.0 2.0 0.00 0.00 0.00 80 1015.1
20260831113102 49 244 1.0 4.0 0.00 0.00 0.00 78 1015.1
20260831111548 49 263 0.0 4.0 0.00 0.00 0.00 76 1015.0
20260831110047 48 253 3.0 7.0 0.00 0.00 0.00 79 1014.9
20260831104554 49 3 0.0 0.0 0.00 0.00 0.00 79 1014.8
20260831103041 49 358 0.0 3.0 0.00 0.00 0.00 77 1014.5
20260831101545 49 335 1.0 3.0 0.00 0.00 0.00 76 1014.4
20260831100138 49 344 1.0 5.0 0.00 0.00 0.00 75 1014.4
20260831094543 49 288 3.0 9.0 0.00 0.00 0.00 77 1014.6
20260831093052 50 297 0.0 3.0 0.00 0.00 0.00 73 1014.5
20260831091543 49 271 4.0 7.0 0.00 0.00 0.00 76 1014.5
20260831090030 50 274 5.0 14.0 0.00 0.00 0.00 77 1014.1
20260831084606 50 274 10.0 15.0 0.00 0.03 0.00 73 1013.9
20260831083027 51 280 8.0 14.0 0.00 0.03 0.00 72 1013.8
20260831081526 50 272 7.0 14.0 0.00 0.03 0.00 77 1013.6
20260831080037 53 278 9.0 13.0 0.00 0.03 0.00 69 1013.6
20260831074536 52 276 10.0 14.0 0.00 0.05 0.00 68 1013.4
20260831073021 52 282 10.0 14.0 0.00 0.05 0.00 73 1013.4
20260831071517 52 270 8.0 12.0 0.00 0.05 0.00 74 1013.5
20260831070016 52 287 9.0 13.0 0.00 0.05 0.00 71 1013.5
20260831064513 52 245 4.0 10.0 0.00 0.06 0.00 74 1013.9
20260831063008 54 278 8.0 11.0 0.00 0.06 0.00 65 1013.5
20260831061505 54 285 6.0 10.0 0.00 0.06 0.00 63 1013.8
20260831060002 55 300 6.0 9.0 0.00 0.06 0.06 62 1013.9
20260831054501 55 297 6.0 9.0 0.00 0.06 0.06 62 1013.8
20260831053104 55 290 5.0 10.0 0.00 0.06 0.06 60 1013.6
20260831051559 56 312 7.0 13.0 0.00 0.06 0.06 58 1013.5
20260831050110 57 308 9.0 16.0 0.00 0.06 0.06 56 1013.5
20260831044559 58 306 13.0 19.0 0.00 0.06 0.06 54 1013.5
20260831043056 59 301 14.0 26.0 0.00 0.06 0.06 51 1013.5
20260831041554 59 300 16.0 24.0 0.00 0.06 0.06 51 1013.5
20260831040053 59 291 16.0 24.0 0.00 0.06 0.06 51 1013.4
20260831034602 60 304 15.0 22.0 0.00 0.09 0.06 49 1013.3
20260831033058 60 287 15.0 23.0 0.00 0.09 0.06 48 1013.3
20260831031555 60 293 14.0 23.0 0.00 0.09 0.06 48 1013.1
20260831030054 60 302 13.0 21.0 0.00 0.09 0.06 48 1012.9
20260831024557 61 297 18.0 26.0 0.00 0.09 0.06 45 1012.6
20260831023048 61 307 15.0 22.0 0.00 0.09 0.06 48 1012.4
20260831021550 61 302 16.0 24.0 0.00 0.09 0.06 46 1012.3
20260831020049 61 311 15.0 26.0 0.00 0.09 0.06 48 1012.2
20260831014549 61 298 16.0 27.0 0.00 0.09 0.06 48 1012.1
20260831013048 62 295 20.0 31.0 0.00 0.09 0.06 45 1012.0
20260831011552 63 306 13.0 32.0 0.00 0.09 0.06 46 1012.2
20260831010049 63 321 19.0 30.0 0.00 0.09 0.06 45 1012.2
20260831004544 63 323 0.0 0.0 0.00 0.09 0.06 43 1012.1